Location: Unspecified
(0.0000°N, 0.0000°E)
Time: 13:51:10
(UTC+00:00)

A-11 Canister half - Pass Details

Date: 25 November 2019
Orbit: 1515 x 1685 km, 47.2° (Epoch: 08 December)

Event Time Altitude Azimuth Distance (km) Brightness Sun altitude
Rises 13:26:40 0° 227° (SW) 4,708 12.0 58.0°
Reaches altitude 10° 13:29:44 10° 230° (SW) 3,742 11.8 57.4°
Maximum altitude 13:39:05 63° 310° (NW) 1,746 10.3 55.6°
Drops below altitude 10° 13:48:48 10° 29° (NNE) 3,867 10.9 53.7°
Sets 13:52:02 0° 33° (NNE) 4,873 11.3 53.1°
